Theta_e
324 323 326 333 329 325 329 329 326 327 338 342 343 340 339 342 340 340 345 345 342 340 337 337 342 346 341 334 334 339 336 333 328 326 326 326 328 338 336 336 335 332 328 326 326 326 327 327 325
323 325 330 332 325 327 327 326 327 324 341 342 343 343 343 344 345 343 345 346 344 343 340 335 334 335 335 337 335 334 340 338 333 327 325 326 327 328 336 336 338 336 332 329 326 326 326 327 326
326 326 327 322 323 327 327 325 325 333 337 331 342 343 343 339 343 344 345 346 346 345 343 341 340 339 336 335 341 342 340 340 339 335 328 325 328 328 328 329 335 338 336 333 329 326 326 326 327
327 329 323 321 324 323 324 321 324 325 341 342 343 340 333 341 342 344 345 345 344 347 345 343 342 341 337 338 340 340 339 339 338 337 338 332 326 329 329 330 330 336 337 335 336 330 327 326 326
326 327 320 322 323 323 320 322 323 328 334 335 338 331 326 341 345 344 345 345 345 344 345 343 341 342 342 342 342 340 338 338 338 338 338 339 338 333 329 332 332 332 334 336 334 336 330 327 326
329 322 321 323 323 322 321 323 328 330 332 331 327 322 333 333 344 345 346 346 346 345 345 343 343 343 342 342 342 341 340 341 340 339 338 338 339 339 337 332 338 338 338 337 335 333 333 331 328
325 320 322 321 324 324 322 323 322 321 321 322 325 321 329 332 337 340 342 344 344 343 343 340 338 339 341 341 341 340 341 341 341 342 342 342 341 340 339 338 333 331 336 337 337 336 334 331 332
324 320 323 323 324 324 322 323 323 321 321 322 322 319 324 322 327 332 336 336 336 334 330 326 328 333 331 336 336 338 337 337 337 338 338 338 338 338 340 340 339 338 335 333 337 337 336 335 333
327 320 322 324 325 324 322 321 322 322 323 323 323 323 322 319 321 326 326 325 322 321 319 316 315 319 316 319 316 324 318 326 328 330 332 333 334 333 334 336 338 339 340 340 338 334 337 336 335
321 320 324 323 322 322 321 322 321 321 321 318 316 317 317 317 319 321 318 316 315 314 313 313 313 312 312 311 312 312 314 314 315 316 317 321 327 329 330 331 334 336 337 337 338 338 338 336 336
321 321 322 323 322 321 320 321 321 320 320 320 315 315 315 316 316 314 312 312 311 311 311 310 309 307 305 304 303 303 303 305 305 306 308 311 313 316 321 324 327 329 331 335 336 337 337 338 338
320 321 323 322 321 320 318 319 320 319 318 319 317 315 315 315 313 312 311 310 310 309 308 306 305 305 304 302 302 301 301 301 302 302 302 303 304 306 309 313 317 320 323 326 328 333 335 335 335
319 321 321 321 320 314 315 314 318 316 315 316 314 314 313 312 311 310 309 308 306 306 305 305 306 305 305 303 301 300 300 300 300 301 301 301 302 302 303 306 309 312 316 319 322 326 329 334 333
321 321 319 319 318 312 311 315 318 315 314 313 313 312 311 310 309 307 306 306 305 305 305 305 305 304 302 302 301 301 301 300 300 300 300 301 301 301 302 303 304 308 310 312 315 318 322 326 332
321 320 318 309 311 309 311 311 307 315 313 312 311 310 308 307 307 306 306 304 304 303 302 302 302 302 301 301 301 303 303 302 301 299 299 300 300 300 300 300 301 303 306 309 312 312 316 322 327
309 307 310 307 308 309 309 311 306 309 312 310 309 307 305 303 302 303 302 302 301 301 300 300 301 301 300 301 304 304 302 302 301 300 299 299 299 299 298 298 299 300 301 303 308 312 312 313 321
305 308 309 310 306 305 305 305 305 309 308 304 303 302 302 302 302 302 301 301 301 301 300 300 300 300 300 303 304 303 303 303 303 303 302 300 299 300 300 300 299 298 299 299 300 304 310 313 312
307 307 308 309 305 304 305 306 303 301 301 301 301 301 301 301 301 301 301 301 301 301 300 299 299 300 303 304 304 304 303 303 303 303 303 302 302 300 300 300 299 299 299 299 299 300 302 307 311
306 307 307 307 306 305 307 305 302 300 300 300 300 300 300 301 301 301 301 300 300 300 300 300 299 299 300 301 302 301 301 301 303 302 302 302 302 302 301 301 300 300 301 300 299 298 300 302 307
306 309 307 306 305 305 306 302 301 300 299 298 297 298 299 299 299 299 299 299 300 300 300 300 300 299 299 299 299 298 298 300 303 303 300 300 300 300 303 302 301 301 301 301 300 299 298 300 305
304 308 306 305 305 304 306 307 303 300 298 297 297 298 297 298 299 300 300 299 299 299 299 299 300 299 299 299 299 298 298 297 298 298 298 298 299 299 299 300 300 300 302 302 301 300 299 298 302
304 306 305 304 304 303 301 301 305 298 297 298 297 297 295 295 295 296 299 299 299 299 299 299 299 299 299 298 298 297 297 297 298 298 298 298 298 298 298 297 298 299 301 302 301 301 300 299 298
304 304 303 304 303 303 302 299 301 298 298 297 297 296 295 295 296 296 296 296 296 298 298 298 298 298 297 297 297 297 297 297 298 297 297 297 297 297 296 297 299 300 301 301 301 301 300 299 298
303 302 302 302 301 303 300 300 295 297 297 296 295 294 294 295 295 295 295 295 296 297 298 297 297 297 297 297 297 297 297 297 297 297 297 297 296 296 296 297 299 298 299 300 300 299 299 298 298
301 299 301 302 302 303 300 299 296 298 297 296 295 294 294 294 294 294 294 294 295 297 296 296 296 296 297 296 297 297 297 297 297 297 297 297 296 296 296 297 297 297 298 298 298 298 298 299 298
302 299 299 301 300 300 300 300 299 297 296 294 294 294 294 294 294 294 294 294 294 296 296 296 296 296 296 296 297 296 295 296 296 297 297 297 296 296 295 296 296 297 298 299 298 299 299 299 299
300 299 299 300 299 299 299 296 296 294 293 294 294 294 294 294 294 294 294 294 294 296 296 295 296 296 296 296 296 295 295 296 296 296 296 296 296 296 296 295 296 297 298 299 298 299 299 299 299
297 298 295 296 293 297 296 296 296 292 293 293 294 294 294 295 294 294 294 294 295 295 295 295 295 295 295 295 295 295 295 296 296 296 296 296 296 296 296 296 297 297 297 298 299 299 299 298 299
296 295 295 295 296 294 295 295 295 292 293 293 295 295 295 295 294 294 295 294 295 295 295 295 295 295 295 295 295 295 295 296 295 295 296 296 296 296 296 297 298 298 298 298 299 299 298 299 298
296 296 294 291 292 292 289 291 293 293 293 294 295 295 295 295 295 295 295 295 295 295 295 295 295 295 295 295 295 295 295 295 295 295 295 296 296 296 296 297 298 298 298 298 298 297 298 299 299
Wind_Speed
4 4 4 2 4 5 2 3 3 5 4 9 16 15 9 6 3 3 3 7 8 8 4 4 2 4 3 2 2 1 1 2 3 2 2 3 4 3 4 3 3 2 3 3 4 2 1 2 1
4 5 3 2 5 4 4 3 5 4 13 15 15 10 9 3 7 4 4 7 9 11 13 8 3 3 4 4 3 3 4 3 5 4 5 4 6 6 6 6 6 6 4 4 5 5 4 4 3
5 4 3 4 3 2 1 1 1 6 6 1 5 10 6 9 7 4 2 4 7 7 6 4 3 4 4 5 6 6 7 7 7 7 6 6 7 8 9 8 8 10 9 7 6 7 6 6 6
2 3 5 5 4 3 2 5 3 4 12 14 15 6 9 12 4 4 6 6 5 7 7 4 3 3 6 6 9 10 10 10 10 10 9 9 9 10 11 11 11 11 12 11 10 9 9 9 8
3 3 4 4 3 3 4 6 3 4 4 4 2 6 7 16 6 3 8 8 7 6 4 2 4 3 1 4 6 7 9 10 11 12 12 12 12 12 12 13 14 14 14 14 14 13 12 12 11
3 3 5 3 1 3 5 8 9 8 11 11 12 9 9 8 6 11 9 9 9 8 6 1 1 2 3 6 8 9 10 9 11 13 14 15 15 15 14 16 17 17 17 17 17 17 17 15 15
5 4 3 3 1 3 5 8 4 4 5 7 4 5 7 13 14 12 12 12 10 7 3 4 4 5 5 6 8 10 11 12 12 12 13 15 16 17 17 17 18 19 20 21 21 21 20 19 18
3 5 3 3 1 1 9 5 1 7 3 4 5 4 4 10 11 10 9 9 8 6 8 9 7 7 9 10 11 13 14 15 14 15 15 15 15 18 18 18 18 19 21 22 23 23 23 23 21
3 5 2 0 1 2 8 5 10 8 10 10 9 15 16 12 9 6 7 8 8 8 11 13 13 12 14 11 15 13 14 15 17 20 20 18 18 20 20 19 20 20 20 22 24 25 26 26 26
5 4 3 1 1 2 4 4 1 4 11 12 20 18 14 11 6 5 9 11 12 14 15 17 18 18 16 16 15 15 14 15 15 15 15 16 18 22 23 25 23 23 25 25 24 24 25 28 29
3 3 4 1 2 5 5 6 3 10 0 5 16 17 13 8 10 12 13 15 16 17 17 19 18 17 17 19 20 19 18 17 17 18 18 18 19 19 19 21 24 28 28 29 25 25 26 25 29
5 5 3 3 8 8 6 6 3 7 6 15 16 14 10 9 11 12 13 14 15 16 18 18 18 17 18 22 25 24 23 22 21 21 21 22 24 23 22 21 22 23 24 31 33 33 28 26 27
5 3 6 7 8 23 18 12 6 14 15 14 15 12 12 14 15 14 14 14 16 18 19 20 20 22 25 28 28 27 25 24 24 24 24 25 26 26 27 26 25 24 25 25 26 29 35 32 28
4 10 11 14 10 22 13 11 4 6 11 15 12 15 16 17 17 18 17 18 20 20 21 23 25 28 30 31 33 31 26 25 25 25 25 26 27 27 27 28 28 28 28 25 25 26 27 32 32
7 4 6 17 14 8 15 9 6 2 10 17 18 17 18 17 15 18 17 19 19 19 20 23 26 29 31 32 29 26 28 29 29 25 23 23 24 26 27 27 28 29 30 30 27 26 26 27 29
6 6 5 4 17 8 9 5 15 9 12 17 17 19 20 22 21 18 17 18 20 23 25 26 27 29 29 28 23 24 25 25 27 22 21 21 22 23 25 26 27 28 29 30 30 27 28 28 27
9 2 4 5 6 5 8 5 22 13 23 21 22 22 20 17 17 18 20 23 27 28 30 29 25 26 24 21 22 25 26 27 25 25 25 22 22 24 28 28 29 29 28 28 28 29 28 29 29
6 5 4 5 7 8 7 6 13 22 29 22 19 18 18 19 19 20 22 25 27 28 28 28 26 24 19 15 21 24 27 27 27 28 25 25 26 24 28 29 31 29 28 29 28 26 27 28 28
5 2 5 3 3 6 5 6 6 13 24 23 22 25 26 25 22 21 23 26 28 28 28 29 31 25 22 19 19 22 27 30 26 29 26 24 24 26 27 28 30 31 27 27 28 27 26 29 24
2 1 4 6 4 4 2 5 3 14 18 25 29 34 37 37 35 31 30 28 27 27 29 28 28 28 27 25 26 29 30 27 27 29 28 27 28 27 28 27 29 29 28 27 28 26 27 26 22
4 1 3 6 4 1 7 2 0 7 24 30 35 34 40 41 42 40 36 31 27 26 27 28 27 29 27 26 28 31 34 33 32 31 29 28 24 25 27 28 29 30 28 28 28 28 25 25 25
5 2 8 9 3 3 4 3 2 6 14 24 31 35 40 39 38 40 41 40 39 37 33 29 29 31 22 25 28 29 31 33 32 29 30 30 28 29 31 34 34 32 28 27 26 28 26 25 27
6 17 10 3 3 3 0 1 3 9 12 15 24 30 34 36 38 39 38 40 42 38 35 32 27 21 24 27 29 31 33 33 31 32 34 32 31 31 34 30 27 27 25 24 25 26 27 28 27
11 7 2 3 3 2 3 2 2 4 8 11 20 29 33 36 36 40 43 46 45 44 33 38 34 31 32 32 36 31 31 29 30 33 36 40 35 31 30 28 26 27 27 26 26 26 29 28 27
10 6 5 6 5 3 2 4 4 3 4 10 22 32 35 41 45 46 48 48 46 43 38 41 38 36 33 35 34 32 31 35 36 35 37 38 36 31 30 28 28 28 25 25 26 27 27 26 28
5 5 4 6 4 10 8 0 3 3 8 23 28 40 45 47 44 44 46 44 45 46 43 43 42 40 37 35 35 38 41 37 36 36 35 36 34 32 32 31 29 29 29 28 27 27 26 26 28
6 6 2 4 1 3 3 5 5 20 32 45 38 40 42 44 43 43 45 46 45 43 46 45 44 42 40 42 40 44 41 39 39 39 38 37 35 34 35 31 31 30 30 31 30 26 26 26 30
9 4 5 4 5 6 3 3 5 16 24 29 38 45 48 49 48 45 47 47 46 47 48 46 45 44 45 47 44 46 46 43 45 45 41 39 38 38 34 32 31 31 31 30 29 28 29 29 27
6 4 4 2 3 3 5 3 2 14 19 19 38 43 43 46 47 47 48 47 45 48 47 47 47 45 46 47 46 46 47 45 45 45 43 43 41 37 33 33 31 30 31 31 31 34 37 31 29
5 2 3 4 6 2 3 6 4 23 30 34 38 43 44 43 46 47 46 46 47 47 48 48 47 46 46 46 46 47 46 45 47 44 40 44 38 40 35 33 35 36 34 35 38 38 32 31 26
Wind_Direction
18 0 335 351 53 65 15 5 309 10 48 63 79 86 104 68 38 141 55 78 54 49 80 167 184 222 237 262 281 267 347 351 342 325 264 244 235 239 251 256 273 253 242 236 252 238 205 164 179
0 346 353 53 79 62 306 340 9 331 139 95 68 61 61 56 56 80 68 94 77 67 64 65 35 315 313 308 305 300 304 320 333 320 301 275 261 249 245 243 270 275 264 261 255 252 239 210 200
9 14 26 79 91 115 187 290 292 28 187 321 93 42 47 342 14 27 36 97 84 68 68 61 19 328 313 324 305 295 304 304 317 321 306 295 279 268 262 253 254 267 270 265 262 258 249 237 214
19 31 59 74 85 339 291 320 240 194 83 93 108 61 76 21 13 323 131 140 119 113 100 78 26 11 346 330 324 314 306 301 303 311 311 307 298 282 276 270 260 261 274 271 264 262 256 245 236
71 59 58 71 36 320 331 309 309 77 81 36 53 94 69 38 80 161 157 165 166 147 148 113 124 129 265 296 321 307 306 305 302 299 295 291 292 293 285 276 269 265 264 266 267 266 263 255 244
61 59 64 113 158 312 312 32 58 61 86 78 88 85 60 52 132 104 147 158 151 155 146 130 16 279 273 286 294 301 300 309 308 300 295 292 290 288 282 275 274 272 268 268 266 267 263 259 251
103 78 127 135 40 22 330 349 63 54 26 7 39 68 90 74 85 107 118 130 126 123 140 71 29 5 329 317 318 310 307 302 289 298 299 297 294 292 288 282 276 273 272 271 270 268 265 262 257
68 88 73 18 1 28 338 19 62 63 46 50 35 97 110 94 99 108 123 116 107 96 68 41 17 357 337 327 320 314 314 314 318 306 304 306 312 304 294 285 285 278 271 269 267 265 263 264 261
57 63 78 177 154 275 347 34 48 76 96 61 76 104 126 126 118 123 90 75 56 42 35 22 18 359 7 347 11 330 355 324 319 318 317 316 312 309 309 300 288 278 278 276 272 265 261 260 261
73 85 161 247 179 280 343 33 62 97 95 90 94 108 119 114 96 62 44 35 24 22 19 15 11 9 11 13 5 2 352 355 350 339 330 321 311 303 304 299 302 296 292 280 277 271 267 261 260
66 126 160 147 351 7 3 15 36 128 121 153 137 123 115 102 67 57 55 45 38 28 15 16 19 20 18 15 9 4 358 351 347 341 336 332 327 320 314 303 301 294 297 291 282 274 269 269 264
82 52 91 36 37 27 8 347 31 41 70 129 131 124 113 87 69 56 45 38 26 19 22 18 12 7 5 2 356 353 348 346 341 337 331 327 324 319 317 315 311 308 309 287 292 283 280 269 270
65 43 57 59 50 26 8 12 54 86 112 121 120 110 86 74 63 48 35 36 29 26 22 12 0 355 350 346 347 347 345 342 338 331 326 321 317 313 309 307 306 305 303 301 293 286 278 276 270
39 73 50 28 28 21 13 11 52 85 125 114 105 84 74 60 48 45 38 38 29 24 13 359 352 347 344 339 339 340 341 340 334 326 322 317 314 312 308 303 300 297 298 296 295 291 284 279 271
49 68 48 18 14 23 357 32 33 142 134 102 91 81 73 66 53 47 43 31 20 7 357 350 343 336 333 333 335 336 339 338 339 335 326 318 316 315 313 309 303 298 293 290 288 286 280 276 274
39 50 36 10 14 349 4 238 14 355 113 87 81 79 62 55 51 42 27 12 2 356 348 342 335 330 328 327 331 334 337 340 343 335 332 330 328 325 323 321 315 309 300 294 286 285 281 277 270
15 342 352 346 48 332 33 346 360 84 95 76 67 63 52 40 24 11 2 357 352 348 343 343 334 325 319 315 326 330 332 333 335 337 335 327 325 325 328 329 327 317 310 303 299 285 283 279 275
315 331 315 267 339 53 58 41 24 61 74 67 51 38 24 12 6 1 357 352 346 342 344 347 340 335 328 312 316 319 319 323 323 326 326 326 320 322 325 325 329 321 313 309 304 298 284 279 279
229 259 292 280 346 61 65 70 27 56 56 42 30 19 12 7 359 354 349 344 342 342 342 343 345 344 338 336 324 325 323 315 308 321 319 316 314 309 319 316 320 322 315 314 316 309 299 283 277
50 190 285 298 9 76 105 79 40 45 45 34 25 18 13 7 3 359 355 351 343 337 338 335 336 337 333 327 326 327 325 317 302 308 310 308 307 306 300 306 307 308 308 313 314 312 309 294 285
335 210 273 250 331 108 146 132 70 76 35 32 22 16 9 360 353 349 348 345 338 333 332 328 324 324 318 316 317 318 318 311 304 308 310 308 302 302 300 296 298 297 298 300 307 310 307 310 280
305 235 289 293 143 190 135 258 86 8 28 23 15 9 2 356 346 340 336 337 337 339 332 324 321 319 307 314 317 315 312 309 309 311 313 314 311 307 303 302 299 290 285 286 296 303 301 306 295
277 307 299 293 168 135 121 107 5 49 15 7 1 353 348 344 344 340 339 335 335 332 335 337 327 325 322 319 318 312 309 309 304 305 309 308 305 303 305 299 297 290 283 283 286 294 297 299 296
300 325 32 66 91 348 159 76 37 27 357 347 344 347 343 340 335 333 339 336 336 334 325 328 327 320 318 318 319 313 308 307 304 307 309 309 308 299 300 297 291 295 288 284 286 289 292 292 292
18 4 348 353 3 254 208 345 71 66 357 335 337 341 343 342 340 337 335 332 330 333 330 328 326 319 320 321 321 321 316 313 309 305 305 307 305 299 298 296 294 291 289 292 288 286 288 287 290
26 63 103 291 299 300 309 237 158 176 342 344 340 343 343 340 333 327 324 324 322 330 330 331 327 323 324 321 318 317 313 309 307 305 305 305 303 302 297 292 291 288 288 294 297 285 285 281 291
342 34 258 269 321 352 312 67 296 351 1 350 338 331 330 330 327 325 322 319 323 321 329 329 327 325 325 324 317 317 316 314 312 308 305 304 302 297 301 293 288 284 283 285 292 286 292 280 285
88 317 10 22 341 311 327 24 301 355 347 343 335 329 327 327 324 322 323 322 324 320 323 323 326 324 323 320 317 313 316 311 309 307 305 303 301 295 293 288 284 280 277 278 283 284 292 291 278
12 19 37 157 153 224 308 285 325 354 338 331 325 324 323 321 319 321 323 324 319 318 318 319 319 316 316 314 313 310 308 306 305 303 303 299 301 299 292 290 282 280 282 281 281 285 290 281 278
95 71 107 116 287 238 166 275 347 344 332 326 321 321 321 319 319 322 322 321 319 318 319 317 316 314 313 312 311 308 304 303 303 302 298 298 295 294 291 287 282 283 280 281 280 281 279 277 269